Astoria, OR

12:59 AM PDT on July 25, 2017 (GMT -0700)
Astoria Regional

Weather History for KAST - June, 2014

Change the Weather History Date:

Sunday, June 15, 2014

  Actual Average Record
Temperature  
Mean Temperature 56 °F 57 °F  
Max Temperature 61 °F 64 °F 81 °F (1961)
Min Temperature 50 °F 50 °F 41 °F (1959)
Degree Days  
Heating Degree Days 9 8  
Month to date heating degree days 98 135  
Since 1 June heating degree days 98 135  
Since 1 July heating degree days 4745 4916  
Cooling Degree Days 0 0  
Month to date cooling degree days 0 0  
Year to date cooling degree days 11 0  
Since 1 June cooling degree days 0 0  
Growing Degree Days 7 (Base 50)    
Moisture  
Dew Point 49 °F    
Average Humidity 75    
Maximum Humidity 93    
Minimum Humidity 57    
Precipitation  
Precipitation 0.13 in 0.09 in 1.14 in (1929)
Month to date precipitation 0.53 1.49  
Year to date precipitation 39.21 34.85  
Sea Level Pressure  
Sea Level Pressure 29.95 in    
Wind  
Wind Speed 8 mph (West)    
Max Wind Speed 17 mph    
Max Gust Speed 21 mph    
Visibility 9 miles    
Events Rain    
T = Trace of Precipitation, MM = Missing Value Source: NWS Daily Summary

Daily Weather History Graph

Daily Weather History Graph

Search for Another Location

Airport or City:

Trip Planner

Search our weather history database for the weather conditions in past years. The results will help you decide how hot, cold, wet, or windy it might be!

Date:

Astronomy

Jun. 15, 2014 Rise Set
Actual Time 5:23 AM PDT 9:08 PM PDT
Civil Twilight 4:44 AM PDT 9:47 PM PDT
Nautical Twilight 3:52 AM PDT 10:39 PM PDT
Astronomical Twilight 2:39 AM PDT 11:53 PM PDT
Moon 11:12 PM PDT (6/15) 8:31 AM PDT (6/15)
Length of Visible Light 17h 02m
Length of Day
15h 45m
Waning Gibbous, 90% of the Moon is Illuminated
Jun 15
Waning Gibbous
Jun 19
Last Quarter
Jun 27
New
Jul 5
First Quarter
Jul 12
Full

Hourly Weather History & Observations

Time (PDT) Temp. Dew Point Humidity Pressure Visibility Wind Dir Wind Speed Gust Speed Precip Events Conditions
12:44 AM 55.0 °F 51.1 °F 86% 30.00 in 10.0 mi Calm Calm - N/A   Overcast
12:55 AM 55.0 °F 51.1 °F 86% 30.00 in 8.0 mi SW 3.5 mph - 0.00 in Rain Light Rain
1:10 AM 55.0 °F 51.1 °F 86% 30.00 in 10.0 mi Calm Calm - 0.00 in   Overcast
1:22 AM 55.0 °F 50.0 °F 83% 29.99 in 10.0 mi SW 3.5 mph - 0.00 in   Overcast
1:43 AM 55.0 °F 50.0 °F 83% 29.99 in 10.0 mi SSW 3.5 mph - 0.00 in   Overcast
1:55 AM 55.0 °F 51.1 °F 86% 29.99 in 10.0 mi Calm Calm - 0.00 in   Overcast
2:34 AM 54.0 °F 52.0 °F 93% 29.98 in 3.0 mi SSW 5.8 mph - 0.02 in Rain Light Rain
2:50 AM 53.6 °F 51.8 °F 94% 29.98 in 8.0 mi SSW 4.6 mph - 0.02 in Rain Light Rain
2:55 AM 54.0 °F 52.0 °F 93% 29.98 in 9.0 mi SSW 4.6 mph - 0.02 in   Overcast
3:34 AM 54.0 °F 51.1 °F 90% 29.97 in 10.0 mi South 3.5 mph - N/A   Overcast
3:55 AM 53.6 °F 51.8 °F 94% 29.96 in 8.0 mi South 4.6 mph - N/A   Overcast
4:10 AM 53.1 °F 52.0 °F 96% 29.96 in 9.0 mi South 3.5 mph - N/A   Overcast
4:55 AM 54.0 °F 52.0 °F 93% 29.95 in 10.0 mi Calm Calm - 0.00 in   Overcast
5:09 AM 54.0 °F 52.0 °F 93% 29.94 in 7.0 mi SSE 3.5 mph - N/A   Overcast
5:55 AM 54.0 °F 52.0 °F 93% 29.94 in 2.5 mi SW 4.6 mph - 0.02 in Rain Light Rain
5:58 AM 54.0 °F 52.0 °F 93% 29.93 in 1.8 mi SW 5.8 mph - 0.00 in Rain Rain
6:05 AM 54.0 °F 52.0 °F 93% 29.93 in 1.5 mi West 4.6 mph - 0.02 in Rain Light Rain
6:27 AM 53.6 °F 51.8 °F 94% 29.93 in 3.0 mi WNW 5.8 mph - N/A Rain Light Rain
6:36 AM 53.1 °F 52.0 °F 96% 29.93 in 9.0 mi West 4.6 mph - 0.06 in   Overcast
6:55 AM 54.0 °F 52.0 °F 93% 29.93 in 7.0 mi WSW 3.5 mph - 0.06 in   Overcast
7:12 AM 54.0 °F 52.0 °F 93% 29.93 in 6.0 mi West 8.1 mph - 0.00 in Rain Light Rain
7:25 AM 54.0 °F 51.1 °F 90% 29.93 in 10.0 mi NW 13.8 mph - 0.00 in   Overcast
7:55 AM 55.0 °F 51.1 °F 86% 29.94 in 10.0 mi NNW 10.4 mph - 0.00 in   Overcast
8:09 AM 55.0 °F 50.0 °F 83% 29.94 in 10.0 mi NW 13.8 mph - N/A   Overcast
8:55 AM 55.9 °F 50.0 °F 80% 29.94 in 10.0 mi NW 11.5 mph - N/A   Overcast
9:55 AM 57.0 °F 46.9 °F 69% 29.94 in 10.0 mi NW 10.4 mph - N/A   Overcast
10:55 AM 57.9 °F 46.9 °F 67% 29.94 in 10.0 mi NW 8.1 mph - N/A   Overcast
11:55 AM 57.9 °F 46.0 °F 65% 29.94 in 10.0 mi WNW 9.2 mph - N/A   Overcast
12:27 PM 59.0 °F 46.9 °F 64% 29.94 in 10.0 mi WNW 9.2 mph - N/A   Overcast
12:55 PM 59.0 °F 46.0 °F 62% 29.94 in 10.0 mi West 11.5 mph - N/A   Overcast
1:55 PM 59.0 °F 44.1 °F 58% 29.94 in 10.0 mi West 10.4 mph - N/A   Overcast
2:55 PM 60.1 °F 46.9 °F 62% 29.94 in 10.0 mi WNW 10.4 mph - N/A   Overcast
3:55 PM 57.9 °F 48.9 °F 72% 29.95 in 10.0 mi WNW 10.4 mph - 0.01 in   Overcast
4:55 PM 60.1 °F 46.0 °F 60% 29.94 in 10.0 mi WNW 16.1 mph - N/A   Overcast
5:31 PM 59.0 °F 45.0 °F 60% 29.94 in 10.0 mi NW 12.7 mph - N/A   Overcast
5:55 PM 57.9 °F 45.0 °F 62% 29.94 in 10.0 mi WNW 13.8 mph - N/A   Overcast
6:22 PM 57.9 °F 45.0 °F 62% 29.93 in 10.0 mi WNW 15.0 mph - N/A   Overcast
6:45 PM 57.9 °F 46.0 °F 65% 29.93 in 10.0 mi WNW 16.1 mph 20.7 mph N/A   Overcast
6:55 PM 57.0 °F 46.0 °F 67% 29.94 in 10.0 mi WNW 13.8 mph - N/A   Overcast
7:55 PM 55.9 °F 45.0 °F 67% 29.93 in 10.0 mi NW 9.2 mph - N/A   Overcast
8:55 PM 54.0 °F 46.9 °F 77% 29.93 in 10.0 mi NW 10.4 mph - 0.01 in   Overcast
9:55 PM 54.0 °F 44.1 °F 69% 29.94 in 10.0 mi WNW 11.5 mph - N/A   Overcast
10:55 PM 53.1 °F 44.1 °F 71% 29.94 in 10.0 mi West 5.8 mph - N/A   Overcast
11:55 PM 51.1 °F 44.1 °F 77% 29.93 in 10.0 mi WSW 4.6 mph - N/A   Scattered Clouds